Keahole Point, HI

2:36 PM HST on April 22, 2018 (GMT -1000)
Kona International At Keahole

Weather History for PHKO - July, 2014

Change the Weather History Date:

Monday, July 21, 2014

  Actual Average Record
Temperature  
Mean Temperature 82 °F -  
Max Temperature 86 °F 83 °F 92 °F (1986)
Min Temperature 78 °F 73 °F 71 °F (1991)
Cooling Degree Days 17    
Growing Degree Days 32 (Base 50)    
Moisture  
Dew Point 74 °F    
Average Humidity 78    
Maximum Humidity 84    
Minimum Humidity 67    
Precipitation  
Precipitation 0.00 in - - ()
Sea Level Pressure  
Sea Level Pressure 29.94 in    
Wind  
Wind Speed 6 mph (WNW)    
Max Wind Speed 12 mph    
Max Gust Speed -    
Visibility 10 miles    
Events      
Averages and records for this station are not official NWS values.
T = Trace of Precipitation, MM = Missing Value Source: NWS Daily Summary

Daily Weather History Graph

Daily Weather History Graph

Search for Another Location

Airport or City:

Astronomy

Jul. 21, 2014 Rise Set
Actual Time 5:56 AM HST 7:04 PM HST
Civil Twilight 5:32 AM HST 7:28 PM HST
Nautical Twilight 5:03 AM HST 7:57 PM HST
Astronomical Twilight 4:34 AM HST 8:26 PM HST
Moon 1:46 AM HST (7/21) 3:03 PM HST (7/21)
Length of Visible Light 13h 56m
Length of Day
13h 08m
Waning Crescent, 22% of the Moon is Illuminated
Jul 21
Waning Crescent
Jul 26
New
Aug 3
First Quarter
Aug 10
Full
Aug 17
Last Quarter

Hourly Weather History & Observations

Time (HST) Temp. Heat Index Dew Point Humidity Pressure Visibility Wind Dir Wind Speed Gust Speed Precip Events Conditions
12:53 AM 80.1 °F 84.2 °F 73.0 °F 79% 29.93 in 10.0 mi NW 9.2 mph - N/A   Mostly Cloudy
1:53 AM 79.0 °F - 73.0 °F 82% 29.92 in 10.0 mi NE 5.8 mph - N/A   Overcast
2:37 AM 80.6 °F 85.4 °F 73.4 °F 79% 29.91 in 10.0 mi Variable 3.5 mph - N/A   Overcast
2:53 AM 80.1 °F 84.5 °F 73.9 °F 81% 29.91 in 10.0 mi WNW 6.9 mph - N/A   Overcast
3:53 AM 80.1 °F 84.5 °F 73.9 °F 81% 29.91 in 10.0 mi NNW 8.1 mph - N/A   Overcast
4:53 AM 79.0 °F - 73.9 °F 84% 29.91 in 10.0 mi NNW 11.5 mph - N/A   Mostly Cloudy
5:40 AM 78.8 °F - 73.4 °F 83% 29.91 in 10.0 mi NNW 8.1 mph - N/A   Overcast
5:53 AM 79.0 °F - 73.9 °F 84% 29.92 in 10.0 mi North 8.1 mph - N/A   Overcast
6:53 AM 80.1 °F 84.5 °F 73.9 °F 81% 29.93 in 10.0 mi NNW 5.8 mph - N/A   Mostly Cloudy
7:53 AM 80.1 °F 84.5 °F 73.9 °F 81% 29.96 in 10.0 mi NNW 5.8 mph - N/A   Overcast
8:31 AM 80.6 °F 85.4 °F 73.4 °F 79% 29.96 in 10.0 mi NW 3.5 mph - N/A   Overcast
8:53 AM 80.1 °F 84.5 °F 73.9 °F 81% 29.96 in 10.0 mi Calm Calm - N/A   Overcast
9:46 AM 82.4 °F 88.2 °F 73.4 °F 74% 29.96 in 10.0 mi West 4.6 mph - N/A   Partly Cloudy
9:53 AM 81.0 °F 86.2 °F 73.9 °F 79% 29.97 in 10.0 mi WSW 4.6 mph - N/A   Overcast
10:53 AM 82.9 °F 89.4 °F 73.9 °F 74% 29.96 in 10.0 mi West 6.9 mph - N/A   Partly Cloudy
11:53 AM 82.0 °F 87.9 °F 73.9 °F 76% 29.94 in 10.0 mi West 5.8 mph - N/A   Overcast
12:53 PM 84.0 °F 91.2 °F 73.9 °F 72% 29.92 in 10.0 mi WSW 6.9 mph - N/A   Overcast
1:53 PM 84.9 °F 92.1 °F 73.9 °F 69% 29.91 in 10.0 mi West 8.1 mph - N/A   Clear
2:53 PM 86.0 °F 93.8 °F 73.9 °F 67% 29.91 in 10.0 mi West 10.4 mph - N/A   Partly Cloudy
3:53 PM 84.0 °F 91.2 °F 73.9 °F 72% 29.92 in 10.0 mi West 10.4 mph - N/A   Mostly Cloudy
4:53 PM 82.9 °F 89.4 °F 73.9 °F 74% 29.93 in 10.0 mi West 10.4 mph - N/A   Scattered Clouds
5:53 PM 81.0 °F 86.2 °F 73.9 °F 79% 29.94 in 10.0 mi WSW 4.6 mph - N/A   Mostly Cloudy
6:53 PM 81.0 °F 86.2 °F 73.9 °F 79% 29.95 in 10.0 mi Calm Calm - N/A   Clear
7:53 PM 81.0 °F 86.2 °F 73.9 °F 79% 29.97 in 10.0 mi Calm Calm - N/A   Overcast
8:53 PM 81.0 °F 86.2 °F 73.9 °F 79% 29.98 in 10.0 mi Calm Calm - N/A   Partly Cloudy
9:53 PM 81.0 °F 86.2 °F 73.9 °F 79% 29.99 in 10.0 mi Calm Calm - N/A   Clear
10:53 PM 80.1 °F 84.5 °F 73.9 °F 81% 30.00 in 10.0 mi Calm Calm - N/A   Clear
11:53 PM 80.1 °F 84.2 °F 73.0 °F 79% 29.99 in 10.0 mi NE 4.6 mph - N/A   Overcast